HAZ4102 ZWWW-ZYTX

Flight info

Callsign HAZ4102
Flight time N/A
Altitude 35100
Route WUR W190 ADPET W188 LIKMI W270 DKO W69 BAXOD/K0843S1100 B208 HET/K0845S1070 G218 TMR W86 KAKAT W31 CHG A575 OMDUS OMD62A
Aircraft A320/M-SDE3FGHIRWY/LB1

Departure

Time 2026-04-21 14:41
Airport Ürümqi Tianshan International Airport (ZWWW)

Arrival

Time N/A
Airport Shenyang Taoxian International Airport (ZYTX)
Time Latitude Longitude Altitude Speed Heading
2026-04-21 14:03 43.91783 87.46842 2136 ft 0 kts 74°
2026-04-21 14:19 43.91782 87.46838 2135 ft 3 kts 73°
2026-04-21 14:20 43.91773 87.46804 2134 ft 4 kts 58°
2026-04-21 14:20 43.91756 87.46776 2133 ft 4 kts 32°
2026-04-21 14:20 43.91732 87.46765 2134 ft 4 kts 350°
2026-04-21 14:20 43.91726 87.46767 2134 ft 0 kts 343°
2026-04-21 14:26 43.91750 87.46757 2135 ft 9 kts 343°
2026-04-21 14:26 43.91831 87.46724 2136 ft 15 kts 343°
2026-04-21 14:26 43.91936 87.46682 2135 ft 16 kts 343°
2026-04-21 14:26 43.92049 87.46637 2135 ft 17 kts 354°
2026-04-21 14:27 43.92110 87.46748 2135 ft 16 kts 72°
2026-04-21 14:27 43.92141 87.46898 2135 ft 16 kts 74°
2026-04-21 14:27 43.92173 87.47054 2135 ft 17 kts 73°
2026-04-21 14:27 43.92209 87.47215 2135 ft 18 kts 73°
2026-04-21 14:28 43.92244 87.47380 2135 ft 18 kts 73°
2026-04-21 14:28 43.92280 87.47549 2134 ft 18 kts 73°
2026-04-21 14:28 43.92317 87.47722 2136 ft 19 kts 73°
2026-04-21 14:28 43.92354 87.47899 2136 ft 19 kts 73°
2026-04-21 14:29 43.92392 87.48080 2136 ft 20 kts 73°
2026-04-21 14:29 43.92432 87.48266 2136 ft 20 kts 73°
2026-04-21 14:29 43.92473 87.48455 2135 ft 21 kts 73°
2026-04-21 14:29 43.92514 87.48650 2134 ft 21 kts 73°
2026-04-21 14:30 43.92556 87.48845 2134 ft 22 kts 73°
2026-04-21 14:30 43.92591 87.49010 2136 ft 14 kts 73°
2026-04-21 14:30 43.92618 87.49138 2136 ft 14 kts 74°
2026-04-21 14:30 43.92646 87.49273 2135 ft 15 kts 74°
2026-04-21 14:31 43.92679 87.49411 2135 ft 15 kts 53°
2026-04-21 14:31 43.92736 87.49432 2135 ft 0 kts 342°
2026-04-21 14:39 43.92737 87.49432 2135 ft 2 kts 342°
2026-04-21 14:39 43.92756 87.49423 2135 ft 7 kts 342°
2026-04-21 14:39 43.92823 87.49393 2135 ft 10 kts 335°
2026-04-21 14:40 43.92828 87.49319 2136 ft 0 kts 255°
2026-04-21 14:40 43.92824 87.49301 2137 ft 17 kts 255°
2026-04-21 14:40 43.92714 87.48787 2135 ft 91 kts 253°
2026-04-21 14:40 43.92565 87.48095 2137 ft 130 kts 253°
2026-04-21 14:41 43.92269 87.46693 2168 ft 173 kts 254°
2026-04-21 14:41 43.91976 87.44614 3172 ft 166 kts 282°
2026-04-21 14:41 43.92289 87.43659 3578 ft 168 kts 311°
2026-04-21 14:41 43.93260 87.42748 4074 ft 175 kts 332°
2026-04-21 14:42 43.94406 87.41935 4312 ft 193 kts 332°
2026-04-21 14:42 43.95621 87.41067 4775 ft 198 kts 332°
2026-04-21 14:42 43.97246 87.39895 5337 ft 200 kts 332°
2026-04-21 14:42 43.98494 87.39026 5700 ft 202 kts 340°
2026-04-21 14:43 43.99878 87.38943 6063 ft 203 kts 19°
2026-04-21 14:43 44.00713 87.39575 6258 ft 206 kts 43°
2026-04-21 14:43 44.01443 87.41286 6397 ft 217 kts 75°
2026-04-21 14:43 44.01987 87.44089 6572 ft 233 kts 76°
2026-04-21 14:44 44.02269 87.45558 6634 ft 243 kts 76°
2026-04-21 14:44 44.02722 87.47905 6761 ft 260 kts 75°
2026-04-21 14:44 44.03228 87.50399 6892 ft 276 kts 69°
2026-04-21 14:44 44.04732 87.53269 7562 ft 283 kts 37°
2026-04-21 14:45 44.05867 87.54230 7864 ft 283 kts 21°
2026-04-21 14:45 44.07758 87.54994 8256 ft 284 kts 13°
2026-04-21 14:45 44.10309 87.55875 9005 ft 286 kts 12°
2026-04-21 14:45 44.11591 87.56316 9548 ft 287 kts 12°
2026-04-21 14:46 44.13529 87.57006 10203 ft 294 kts 15°
2026-04-21 14:46 44.15521 87.58068 10366 ft 318 kts 20°
2026-04-21 14:46 44.17640 87.59286 10498 ft 341 kts 20°
2026-04-21 14:46 44.19899 87.60594 10612 ft 362 kts 21°
2026-04-21 14:47 44.22267 87.61973 10951 ft 374 kts 21°
2026-04-21 14:47 44.24681 87.63386 11502 ft 379 kts 21°
2026-04-21 14:47 44.27089 87.64797 12103 ft 382 kts 21°
2026-04-21 14:47 44.29554 87.66236 12686 ft 386 kts 20°
2026-04-21 14:48 44.32029 87.67734 13264 ft 390 kts 25°
2026-04-21 14:48 44.34349 87.69747 13826 ft 396 kts 35°
2026-04-21 14:48 44.36443 87.72286 14336 ft 400 kts 40°
2026-04-21 14:48 44.38509 87.74914 14862 ft 403 kts 40°
2026-04-21 14:49 44.40589 87.77552 15369 ft 405 kts 40°
2026-04-21 14:49 44.42682 87.80208 15846 ft 408 kts 40°
2026-04-21 14:49 44.44792 87.82888 16336 ft 411 kts 40°
2026-04-21 14:49 44.46875 87.85537 16817 ft 413 kts 40°
2026-04-21 14:50 44.49016 87.88263 17290 ft 416 kts 40°
2026-04-21 14:50 44.51163 87.91000 17761 ft 418 kts 40°
2026-04-21 14:50 44.53228 87.93898 18212 ft 424 kts 48°
2026-04-21 14:50 44.54880 87.97349 18603 ft 430 kts 60°
2026-04-21 14:51 44.56013 88.01249 18987 ft 436 kts 72°
2026-04-21 14:51 44.56576 88.05444 19372 ft 441 kts 84°
2026-04-21 14:51 44.56526 88.09764 19643 ft 446 kts 95°
2026-04-21 14:51 44.56145 88.14075 19700 ft 445 kts 96°
2026-04-21 14:52 44.54881 88.27608 19699 ft 445 kts 96°
2026-04-21 14:52 44.54491 88.31954 19699 ft 445 kts 96°
2026-04-21 14:53 44.54108 88.36265 19699 ft 444 kts 96°
2026-04-21 14:53 44.53726 88.40553 19699 ft 445 kts 96°
2026-04-21 14:54 44.52579 88.53160 20773 ft 452 kts 96°
2026-04-21 14:54 44.52311 88.56125 21023 ft 453 kts 96°